When you browse on this site, cookies collect data to enhance your experience and personalize the content and advertising you see.
Visit our Privacy Policy to learn more. By continuing to use the site, you agree to this use of cookies and data.
  • In Austria
  • List of Countries
  • For 7 days
  • Water Temperature
  • Weather Map
  • News
  • Weather Widgets
  • user-avatar
    Login

    Hourly Weather Progreso de Obregon

    Today, 20 August, Tuesday

    Time Temperature Precipitation Wind Pressure Humidity
    00:00 +15°C° 0 mm 2 mps 603 mmHg 97%
    01:00 +15°C° 0 mm 1 mps 603 mmHg 95%
    02:00 +15°C° 0 mm 1 mps 602 mmHg 94%
    03:00 +15°C° 0 mm 1 mps 603 mmHg 93%
    04:00 +14°C° 0 mm 1 mps 603 mmHg 92%
    05:00 +14°C° 0 mm 1 mps 603 mmHg 90%
    06:00 +15°C° 0 mm 1 mps 604 mmHg 85%
    07:00 +16°C° 0 mm 1 mps 604 mmHg 79%
    08:00 +18°C° 0 mm 1 mps 604 mmHg 74%
    09:00 +19°C° 0 mm 2 mps 605 mmHg 67%
    10:00 +21°C° 0 mm 3 mps 605 mmHg 59%
    11:00 +23°C° 0 mm 4 mps 606 mmHg 52%
    12:00 +23°C° 0 mm 5 mps 605 mmHg 52%
    13:00 +25°C° 0 mm 5 mps 605 mmHg 53%
    14:00 +24°C° 0 mm 6 mps 605 mmHg 53%
    15:00 +23°C° 0 mm 6 mps 604 mmHg 59%
    16:00 +22°C° 0 mm 6 mps 604 mmHg 65%
    17:00 +21°C° 0 mm 6 mps 603 mmHg 71%
    18:00 +19°C° 0 mm 5 mps 603 mmHg 78%
    19:00 +17°C° 0 mm 3 mps 603 mmHg 86%
    20:00 +16°C° 0 mm 2 mps 604 mmHg 93%
    21:00 +16°C° 0 mm 1 mps 604 mmHg 93%
    22:00 +16°C° 0 mm 1 mps 604 mmHg 92%
    23:00 +16°C° 0 mm 1 mps 604 mmHg 92%

    Tomorrow, 21 August, Wednesday

    Time Temperature Precipitation Wind Pressure Humidity
    00:00 +16°C° 0 mm 1 mps 604 mmHg 93%
    01:00 +16°C° 0 mm 1 mps 603 mmHg 94%
    02:00 +15°C° 0 mm 1 mps 603 mmHg 95%
    03:00 +15°C° 0 mm 1 mps 603 mmHg 95%
    04:00 +13°C° 0 mm 0 mps 602 mmHg 95%
    05:00 +13°C° 0 mm 0 mps 602 mmHg 96%
    06:00 +14°C° 0 mm 0 mps 603 mmHg 89%
    07:00 +18°C° 0 mm 1 mps 604 mmHg 83%
    08:00 +19°C° 0 mm 1 mps 604 mmHg 77%
    09:00 +21°C° 0 mm 1 mps 605 mmHg 68%
    10:00 +23°C° 0 mm 2 mps 605 mmHg 59%
    11:00 +24°C° 0 mm 3 mps 606 mmHg 50%
    12:00 +25°C° 0 mm 4 mps 605 mmHg 50%
    13:00 +25°C° 0 mm 5 mps 605 mmHg 50%
    14:00 +26°C° 0 mm 6 mps 605 mmHg 50%
    15:00 +25°C° 0.2 mm 5 mps 604 mmHg 56%
    16:00 +22°C° 0.2 mm 5 mps 603 mmHg 61%
    17:00 +21°C° 0.2 mm 5 mps 603 mmHg 66%
    18:00 +19°C° 0 mm 4 mps 603 mmHg 74%
    19:00 +18°C° 0 mm 3 mps 603 mmHg 81%
    20:00 +16°C° 0 mm 2 mps 603 mmHg 88%
    21:00 +16°C° 0 mm 1 mps 603 mmHg 90%
    22:00 +15°C° 0 mm 1 mps 603 mmHg 92%
    23:00 +14°C° 0 mm 0 mps 603 mmHg 94%

    Day after tomorrow, 22 August, Thursday

    Time Temperature Precipitation Wind Pressure Humidity
    00:00 +13°C° 0 mm 0 mps 602 mmHg 95%
    01:00 +13°C° 0 mm 0 mps 602 mmHg 95%
    02:00 +13°C° 0 mm 0 mps 602 mmHg 95%
    03:00 +13°C° 0 mm 0 mps 601 mmHg 95%
    04:00 +13°C° 0 mm 0 mps 601 mmHg 95%
    05:00 +14°C° 0 mm 1 mps 601 mmHg 94%
    06:00 +15°C° 0 mm 1 mps 602 mmHg 87%
    07:00 +18°C° 0 mm 1 mps 603 mmHg 80%
    08:00 +20°C° 0 mm 1 mps 605 mmHg 73%
    09:00 +22°C° 0.1 mm 1 mps 605 mmHg 67%
    10:00 +23°C° 0.1 mm 1 mps 605 mmHg 60%
    11:00 +25°C° 0.1 mm 1 mps 605 mmHg 54%
    12:00 +25°C° 1 mm 1 mps 605 mmHg 55%
    13:00 +25°C° 1 mm 2 mps 604 mmHg 56%
    14:00 +26°C° 1 mm 3 mps 604 mmHg 56%
    15:00 +24°C° 2.3 mm 3 mps 603 mmHg 63%
    16:00 +23°C° 2.3 mm 2 mps 603 mmHg 70%
    17:00 +21°C° 2.3 mm 2 mps 603 mmHg 77%
    18:00 +20°C° 1.8 mm 2 mps 603 mmHg 80%
    19:00 +19°C° 1.8 mm 2 mps 603 mmHg 84%
    20:00 +18°C° 1.8 mm 2 mps 603 mmHg 87%
    21:00 +18°C° 0.8 mm 2 mps 603 mmHg 87%
    22:00 +17°C° 0.8 mm 2 mps 603 mmHg 88%
    23:00 +17°C° 0.8 mm 2 mps 603 mmHg 88%

    23 August, Friday

    Time Temperature Precipitation Wind Pressure Humidity
    00:00 +18°C° 0.1 mm 1 mps 603 mmHg 88%
    01:00 +18°C° 0.1 mm 1 mps 603 mmHg 88%
    02:00 +16°C° 0.1 mm 1 mps 602 mmHg 88%
    03:00 +16°C° 0 mm 1 mps 602 mmHg 88%
    04:00 +16°C° 0 mm 1 mps 602 mmHg 88%
    05:00 +16°C° 0 mm 1 mps 602 mmHg 87%
    06:00 +18°C° 0 mm 1 mps 603 mmHg 81%
    07:00 +20°C° 0 mm 1 mps 604 mmHg 75%
    08:00 +21°C° 0 mm 1 mps 605 mmHg 69%
    09:00 +22°C° 0.5 mm 1 mps 605 mmHg 65%
    10:00 +24°C° 0.5 mm 1 mps 605 mmHg 61%
    11:00 +25°C° 0.5 mm 1 mps 605 mmHg 57%
    12:00 +25°C° 1.7 mm 1 mps 605 mmHg 57%
    13:00 +25°C° 1.7 mm 1 mps 604 mmHg 57%
    14:00 +26°C° 1.7 mm 1 mps 604 mmHg 57%
    15:00 +24°C° 1.9 mm 1 mps 603 mmHg 65%
    16:00 +23°C° 1.9 mm 1 mps 603 mmHg 73%
    17:00 +21°C° 1.9 mm 1 mps 602 mmHg 81%
    18:00 +20°C° 3.1 mm 1 mps 603 mmHg 85%
    19:00 +20°C° 3.1 mm 1 mps 603 mmHg 89%
    20:00 +19°C° 3.1 mm 1 mps 604 mmHg 93%
    21:00 +19°C° 0.2 mm 1 mps 604 mmHg 92%
    22:00 +18°C° 0.2 mm 1 mps 604 mmHg 92%
    23:00 +18°C° 0.2 mm 1 mps 604 mmHg 91%

    24 August, Saturday

    Time Temperature Precipitation Wind Pressure Humidity
    00:00 +18°C° 0 mm 1 mps 603 mmHg 91%
    01:00 +16°C° 0 mm 0 mps 603 mmHg 91%
    02:00 +16°C° 0 mm 0 mps 603 mmHg 92%
    03:00 +16°C° 0 mm 0 mps 603 mmHg 91%
    04:00 +15°C° 0 mm 0 mps 603 mmHg 91%
    05:00 +15°C° 0 mm 0 mps 603 mmHg 90%
    06:00 +16°C° 0 mm 0 mps 604 mmHg 85%
    07:00 +18°C° 0 mm 0 mps 605 mmHg 80%
    08:00 +19°C° 0 mm 0 mps 605 mmHg 74%
    09:00 +20°C° 0.3 mm 0 mps 605 mmHg 69%
    10:00 +21°C° 0.3 mm 0 mps 606 mmHg 64%
    11:00 +22°C° 0.3 mm 0 mps 606 mmHg 59%
    12:00 +25°C° 0.5 mm 1 mps 606 mmHg 55%
    13:00 +26°C° 0.5 mm 2 mps 605 mmHg 51%
    14:00 +27°C° 0.5 mm 2 mps 605 mmHg 47%
    15:00 +25°C° 1 mm 3 mps 605 mmHg 56%
    16:00 +24°C° 1 mm 3 mps 604 mmHg 65%
    17:00 +21°C° 1 mm 3 mps 603 mmHg 74%
    18:00 +20°C° 0.2 mm 2 mps 603 mmHg 76%
    19:00 +21°C° 0.2 mm 1 mps 604 mmHg 78%
    20:00 +20°C° 0.2 mm 1 mps 604 mmHg 79%
    21:00 +19°C° 0 mm 1 mps 604 mmHg 80%
    22:00 +17°C° 0 mm 0 mps 604 mmHg 80%
    23:00 +17°C° 0 mm 0 mps 604 mmHg 80%

    25 August, Sunday

    Time Temperature Precipitation Wind Pressure Humidity
    00:00 +16°C° 0 mm 0 mps 603 mmHg 81%
    01:00 +16°C° 0 mm 0 mps 603 mmHg 82%
    02:00 +15°C° 0 mm 0 mps 602 mmHg 82%
    03:00 +15°C° 0 mm 0 mps 602 mmHg 83%
    04:00 +15°C° 0 mm 0 mps 602 mmHg 84%
    05:00 +14°C° 0 mm 0 mps 602 mmHg 85%
    06:00 +16°C° 0 mm 0 mps 603 mmHg 78%
    07:00 +18°C° 0 mm 0 mps 604 mmHg 71%
    08:00 +20°C° 0 mm 0 mps 605 mmHg 64%
    09:00 +23°C° 0 mm 1 mps 606 mmHg 59%
    10:00 +25°C° 0 mm 1 mps 606 mmHg 53%
    11:00 +26°C° 0 mm 2 mps 606 mmHg 48%
    12:00 +27°C° 0 mm 2 mps 606 mmHg 46%
    13:00 +28°C° 0 mm 3 mps 605 mmHg 43%
    14:00 +28°C° 0 mm 3 mps 605 mmHg 41%
    15:00 +27°C° 0.1 mm 3 mps 604 mmHg 49%
    16:00 +26°C° 0.1 mm 4 mps 604 mmHg 56%
    17:00 +25°C° 0.1 mm 4 mps 604 mmHg 64%
    18:00 +22°C° 0.4 mm 3 mps 603 mmHg 73%
    19:00 +20°C° 0.4 mm 2 mps 603 mmHg 82%
    20:00 +19°C° 0.4 mm 1 mps 603 mmHg 91%
    21:00 +19°C° 0.3 mm 1 mps 603 mmHg 91%
    22:00 +18°C° 0.3 mm 1 mps 603 mmHg 91%
    23:00 +16°C° 0.3 mm 0 mps 603 mmHg 91%
    Show more